This is the latest recevied weather packets stored in our database for station/object EA3HRE-10. If no packets are shown the sender has not sent any weather packets the latest 10 day(s).
| Time | Temp. | Humidity | Pressure | Rain* | Wind** | Luminosity | Snow |
|---|---|---|---|---|---|---|---|
| 1787830201 | 27.22° C | 48% | 1011.8 hPa | - | - | - | - |
| 1787829303 | 27.22° C | 48% | 1011.8 hPa | - | - | - | - |
| 1787828401 | 26.67° C | 47% | 1011.7 hPa | - | - | - | - |
| 1787827545 | 29.44° C | 55% | 1011.8 hPa | - | - | - | - |
| 1787827501 | 29.44° C | 55% | 1011.8 hPa | - | - | - | - |
| 1787826600 | 29.44° C | 56% | 1012 hPa | - | - | - | - |
| 1787825733 | 29.44° C | 60% | 1012.2 hPa | - | - | - | - |
| 1787825701 | 29.44° C | 60% | 1012.2 hPa | - | - | - | - |
| 1787824801 | 29.44° C | 60% | 1012.2 hPa | - | - | - | - |
| 1787823901 | 28.89° C | 59% | 1012.4 hPa | - | - | - | - |
| 1787823001 | 28.89° C | 59% | 1012.3 hPa | - | - | - | - |
| 1787822101 | 28.33° C | 61% | 1012.4 hPa | - | - | - | - |
| 1787821201 | 28.33° C | 61% | 1012.4 hPa | - | - | - | - |
| 1787820301 | 28.33° C | 62% | 1012.5 hPa | - | - | - | - |
| 1787819401 | 27.78° C | 62% | 1012.7 hPa | - | - | - | - |
| 1787818501 | 27.78° C | 63% | 1012.4 hPa | - | - | - | - |
| 1787817600 | 27.78° C | 65% | 1012 hPa | - | - | - | - |
| 1787816701 | 27.78° C | 65% | 1011.9 hPa | - | - | - | - |
| 1787815801 | 27.78° C | 65% | 1011.7 hPa | - | - | - | - |
| 1787814901 | 27.78° C | 66% | 1011.6 hPa | - | - | - | - |
| 1787814001 | 27.22° C | 66% | 1011.5 hPa | - | - | - | - |
| 1787813101 | 27.22° C | 68% | 1011.4 hPa | - | - | - | - |
| 1787812392 | 27.22° C | 66% | 1011.6 hPa | - | - | - | - |
| 1787811498 | 27.22° C | 66% | 1011.4 hPa | - | - | - | - |
| 1787810597 | 27.22° C | 65% | 1011.1 hPa | - | - | - | - |
* Rain since midnight (hover to see other rain measurements)
** Current wind speed in m/s (hover to see current wind gust speed)